Home   Weather   Fushun   Past weeks
Flag for China

Past Weather in Fushun, Liaoning, China — Yesterday and Last 2 Weeks

Now
57 °F

Light rain. Overcast.


Feels Like: 57 °F
Forecast: 67 / 47 °F
Wind: 1 mph from North

Location: Shenyang / Taoxian

Current Time: Oct 18, 2019 at 8:29:11 pm

Latest Report: Oct 18, 2019 at 8:00 pm


Visibility: 4 mi

Pressure: 30.18 "Hg

Humidity: 59%

Dew Point: 43 °F

Location of FushunLocation

Past Weather in Fushun — Graph

°F

Fushun Temperature Yesterday

Maximum temperature yesterday: 66 °F (at 2:00 pm)
Minimum temperature yesterday: 36 °F (at 12:00 am)
Average temperature yesterday: 49 °F

High & Low Weather Summary for the Past Weeks

 TemperatureHumidityPressure
High72 °F (Oct 7, 1:00 pm)100% (Oct 4, 7:00 am)30.60 "Hg (Oct 4, 7:00 am)
Low23 °F (Oct 14, 4:30 am)14% (Oct 15, 1:30 pm)29.89 "Hg (Oct 7, 2:00 pm)
Average49 °F50%30.22 "Hg
* Reported Oct 3 7:00 pm — Oct 18 7:00 pm, Fushun. Weather by CustomWeather, © 2019

Note: Actual official high and low records may vary slightly from our data, if they occured in-between our weather recording intervals... More about our weather records

Advertising

Fushun Weather History for the Previous 24 Hours

Scroll right to see more
 ConditionsComfort  
Time TempWeatherWind HumidityBarometerVisibility
7:00 pm
Fri, Oct 18
55 °FLight rain. Overcast.No wind59%30.18 "Hg4 mi
6:30 pm61 °FLight rain. Overcast.1 mph45%30.18 "Hg5 mi
6:00 pm57 °FLight rain. Overcast.1 mph51%30.18 "Hg5 mi
5:30 pm61 °FLight rain. Overcast.3 mph45%30.18 "Hg5 mi
5:00 pm63 °FSunny.1 mph39%30.15 "Hg10 mi
4:30 pm63 °FSunny.3 mph39%30.15 "Hg10 mi
3:30 pm66 °FPassing clouds.6 mph32%30.15 "HgN/A
3:00 pm68 °FPassing clouds.6 mph35%30.18 "HgN/A
2:30 pm68 °FPassing clouds.6 mph35%30.18 "HgN/A
2:00 pm68 °FPassing clouds.6 mph35%30.18 "HgN/A
1:30 pm68 °FPassing clouds.8 mph33%30.18 "HgN/A
1:00 pm68 °FPassing clouds.8 mph33%30.18 "HgN/A
12:30 pm68 °FPassing clouds.8 mph33%30.21 "HgN/A
12:00 pm66 °FPassing clouds.6 mph35%30.21 "HgN/A
11:30 am66 °FPassing clouds.6 mph37%30.21 "HgN/A
11:00 am66 °FClear.3 mph32%30.24 "Hg5 mi
10:30 am64 °FClear.1 mph34%30.24 "Hg4 mi
10:00 am61 °FClear.6 mph36%30.24 "Hg4 mi
9:30 am55 °FClear.3 mph44%30.24 "Hg3 mi
9:00 am52 °FClear.3 mph50%30.27 "Hg3 mi
8:30 am50 °FClear.3 mph50%30.27 "Hg4 mi
8:00 am48 °FClear.6 mph54%30.27 "Hg4 mi
7:30 am45 °FClear.3 mph61%30.27 "Hg3 mi
7:00 am41 °FClear.3 mph66%30.24 "Hg3 mi
6:30 am39 °FClear.6 mph70%30.24 "Hg2 mi
6:00 am39 °FClear.6 mph70%30.24 "Hg2 mi
5:30 am39 °FClear.6 mph70%30.24 "Hg4 mi
5:00 am39 °FClear.6 mph70%30.24 "Hg4 mi
4:30 am37 °FClear.6 mph70%30.24 "Hg4 mi
4:00 am37 °FClear.6 mph70%30.24 "Hg4 mi
3:30 am37 °FClear.6 mph70%30.24 "Hg4 mi
3:00 am39 °FClear.3 mph65%30.24 "Hg4 mi
2:30 am39 °FClear.8 mph61%30.24 "Hg4 mi
2:00 am39 °FClear.8 mph65%30.24 "Hg4 mi
1:30 am39 °FClear.6 mph61%30.24 "Hg4 mi
1:00 am37 °FClear.3 mph65%30.27 "Hg4 mi
12:30 am41 °FClear.1 mph57%30.27 "Hg4 mi
10:30 pm
Thu, Oct 17
46 °FClear.3 mph46%30.27 "Hg4 mi
10:00 pm43 °FClear.1 mph57%30.27 "Hg4 mi
9:30 pm43 °FClear.1 mph53%30.27 "Hg4 mi
9:00 pm45 °FClear.1 mph46%30.27 "Hg4 mi
8:30 pm46 °FClear.1 mph46%30.27 "Hg4 mi
8:00 pm46 °FClear.3 mph43%30.24 "Hg4 mi
Weather by CustomWeather, © 2019

See weather overview